{"data":{"norad_id":65753,"intl_designator":"2025-216V","name":"STARLINK-34894","alt_names":[],"object_type":"PAYLOAD","status":"ACTIVE","operator":null,"country":"US","launch_date":"2025-09-25","launch_site_code":"AFETR","launch_vehicle":null,"mission":null,"orbit_class":"UNKNOWN","rcs_meters":null,"size_class":null,"mass_kg":null,"dimensions":null,"purposes":["comms"],"wikipedia_slug":null,"has_3d_model":false,"image_url":null,"decayed_at":null,"tle_current":{"epoch":"2026-09-20T09:34:35.572512Z","epoch_age_seconds":117334,"freshness":"FRESH","line1":"1 65753U 25216V   26263.39902283  .00013361  00000+0  40584-3 0  9994","line2":"2 65753  53.1597 146.4175 0001369  88.8452 271.2708 15.34401465 56359","mean_motion":15.34401465,"eccentricity":0.0001369,"inclination_deg":53.1597,"raan_deg":146.4175,"arg_perigee_deg":88.8452,"mean_anomaly_deg":271.2708,"bstar":0.00040584,"rev_number":5635,"period_min":93.847668478341,"perigee_km":461.76237548905,"apogee_km":463.63539635462,"semimajor_km":6840.8358859218,"source":"CELESTRAK","updated_at":"2026-09-21T09:00:35.710975Z"}}}